DLH9HE EDDF-EDDN

Flight info

Callsign DLH9HE
Flight time 0h 34m
Altitude 21000
Route CINDY8S CINDY Z74 HAREM T104 ELMOX DCT LETKU LETKU1V
Aircraft A20N/M-SDE2E3FGHIRWXY/LB1

Departure

Time 2026-04-14 21:03
Airport Frankfurt Main Airport (EDDF)

Arrival

Time 2026-04-14 21:37
Airport Nuremberg Airport (EDDN)
Time Latitude Longitude Altitude Speed Heading
2026-04-14 20:41 50.04453 8.56430 359 ft 0 kts 154°
2026-04-14 20:56 50.04456 8.56428 365 ft 3 kts 154°
2026-04-14 20:56 50.04479 8.56408 373 ft 4 kts 146°
2026-04-14 20:57 50.04501 8.56385 368 ft 4 kts 156°
2026-04-14 20:57 50.04515 8.56376 361 ft 2 kts 242°
2026-04-14 20:57 50.04516 8.56379 361 ft 0 kts 244°
2026-04-14 20:59 50.04500 8.56322 363 ft 15 kts 249°
2026-04-14 20:59 50.04448 8.56100 365 ft 19 kts 250°
2026-04-14 20:59 50.04359 8.56052 364 ft 15 kts 156°
2026-04-14 21:00 50.04305 8.56084 358 ft 10 kts 137°
2026-04-14 21:00 50.04291 8.56163 360 ft 9 kts 89°
2026-04-14 21:00 50.04232 8.56244 361 ft 15 kts 162°
2026-04-14 21:00 50.04130 8.56274 358 ft 9 kts 222°
2026-04-14 21:01 50.04096 8.56144 362 ft 22 kts 250°
2026-04-14 21:01 50.04020 8.55826 358 ft 40 kts 249°
2026-04-14 21:01 50.03928 8.55448 354 ft 33 kts 250°
2026-04-14 21:01 50.03848 8.55106 355 ft 34 kts 250°
2026-04-14 21:02 50.03762 8.54757 356 ft 35 kts 249°
2026-04-14 21:02 50.03683 8.54421 351 ft 31 kts 249°
2026-04-14 21:02 50.03575 8.54332 354 ft 19 kts 163°
2026-04-14 21:02 50.03505 8.54458 350 ft 17 kts 85°
2026-04-14 21:03 50.03626 8.54994 351 ft 93 kts 69°
2026-04-14 21:03 50.03963 8.56360 415 ft 168 kts 69°
2026-04-14 21:03 50.04403 8.58150 1163 ft 182 kts 69°
2026-04-14 21:03 50.04806 8.59925 2362 ft 158 kts 71°
2026-04-14 21:04 50.05149 8.61481 3249 ft 156 kts 71°
2026-04-14 21:04 50.05521 8.63172 3828 ft 178 kts 71°
2026-04-14 21:04 50.05961 8.65163 4007 ft 208 kts 71°
2026-04-14 21:04 50.06451 8.67364 3995 ft 224 kts 71°
2026-04-14 21:05 50.06969 8.69701 3993 ft 231 kts 72°
2026-04-14 21:05 50.07146 8.72145 3995 ft 233 kts 94°
2026-04-14 21:05 50.06920 8.74675 3992 ft 233 kts 99°
2026-04-14 21:05 50.06629 8.77134 3988 ft 234 kts 100°
2026-04-14 21:06 50.06327 8.79633 4334 ft 236 kts 100°
2026-04-14 21:06 50.06029 8.82136 5242 ft 236 kts 99°
2026-04-14 21:06 50.05804 8.84674 6075 ft 238 kts 92°
2026-04-14 21:06 50.05791 8.87273 6875 ft 242 kts 88°
2026-04-14 21:07 50.05836 8.89922 7608 ft 248 kts 88°
2026-04-14 21:07 50.05890 8.92634 8326 ft 254 kts 88°
2026-04-14 21:07 50.05942 8.95414 9053 ft 260 kts 89°
2026-04-14 21:07 50.05993 8.98268 9800 ft 266 kts 89°
2026-04-14 21:08 50.06042 9.01172 10510 ft 271 kts 89°
2026-04-14 21:08 50.06090 9.04110 11291 ft 271 kts 88°
2026-04-14 21:08 50.06137 9.07043 12082 ft 272 kts 88°
2026-04-14 21:08 50.06183 9.10006 12840 ft 274 kts 87°
2026-04-14 21:09 50.06229 9.12977 13440 ft 277 kts 86°
2026-04-14 21:09 50.06275 9.15979 13679 ft 279 kts 87°
2026-04-14 21:09 50.06320 9.19004 13530 ft 279 kts 87°
2026-04-14 21:09 50.06363 9.22026 13290 ft 280 kts 87°
2026-04-14 21:10 50.06405 9.25062 13241 ft 281 kts 87°
2026-04-14 21:10 50.06446 9.28099 13240 ft 281 kts 87°
2026-04-14 21:10 50.06487 9.31141 13242 ft 280 kts 87°
2026-04-14 21:10 50.06526 9.34173 13242 ft 280 kts 87°
2026-04-14 21:11 50.06565 9.37209 13243 ft 280 kts 87°
2026-04-14 21:11 50.06603 9.40243 13244 ft 280 kts 87°
2026-04-14 21:11 50.06640 9.43273 13243 ft 280 kts 87°
2026-04-14 21:11 50.06677 9.46312 13244 ft 280 kts 87°
2026-04-14 21:12 50.06712 9.49338 13241 ft 281 kts 87°
2026-04-14 21:12 50.06747 9.52380 13240 ft 281 kts 87°
2026-04-14 21:12 50.06782 9.55417 13241 ft 280 kts 87°
2026-04-14 21:12 50.06815 9.58452 13239 ft 280 kts 87°
2026-04-14 21:13 50.06848 9.61487 13245 ft 280 kts 87°
2026-04-14 21:13 50.06879 9.64487 13244 ft 281 kts 88°
2026-04-14 21:13 50.06895 9.67531 13242 ft 282 kts 92°
2026-04-14 21:14 50.05874 9.73414 13246 ft 283 kts 115°
2026-04-14 21:14 50.04790 9.75962 12996 ft 285 kts 133°
2026-04-14 21:14 50.03331 9.78046 13206 ft 281 kts 142°
2026-04-14 21:14 50.01971 9.79710 13044 ft 285 kts 144°
2026-04-14 21:15 50.00380 9.81559 13040 ft 321 kts 145°
2026-04-14 21:15 49.98499 9.83716 13043 ft 347 kts 145°
2026-04-14 21:15 49.96535 9.85962 12872 ft 351 kts 145°
2026-04-14 21:16 49.94595 9.88249 12403 ft 347 kts 140°
2026-04-14 21:16 49.92901 9.90825 12155 ft 335 kts 135°
2026-04-14 21:16 49.91348 9.93436 11950 ft 323 kts 133°
2026-04-14 21:16 49.89878 9.95987 11755 ft 311 kts 133°
2026-04-14 21:17 49.88470 9.98460 11580 ft 300 kts 133°
2026-04-14 21:17 49.87118 10.00851 11418 ft 290 kts 133°
2026-04-14 21:17 49.85814 10.03163 11269 ft 279 kts 133°
2026-04-14 21:17 49.84559 10.05392 11127 ft 269 kts 133°
2026-04-14 21:18 49.83350 10.07540 11000 ft 260 kts 133°
2026-04-14 21:18 49.82183 10.09613 10853 ft 251 kts 133°
2026-04-14 21:18 49.81056 10.11614 10701 ft 243 kts 133°
2026-04-14 21:18 49.79952 10.13571 10473 ft 240 kts 133°
2026-04-14 21:19 49.78856 10.15513 10184 ft 239 kts 133°
2026-04-14 21:19 49.77767 10.17441 10061 ft 237 kts 133°
2026-04-14 21:19 49.76679 10.19366 10046 ft 238 kts 133°
2026-04-14 21:19 49.75589 10.21294 10039 ft 238 kts 133°
2026-04-14 21:20 49.74497 10.23225 10049 ft 238 kts 133°
2026-04-14 21:20 49.73407 10.25151 10050 ft 238 kts 133°
2026-04-14 21:20 49.72333 10.27048 10043 ft 238 kts 134°
2026-04-14 21:20 49.71244 10.28969 10041 ft 238 kts 133°
2026-04-14 21:21 49.70152 10.30894 10037 ft 238 kts 133°
2026-04-14 21:21 49.69062 10.32815 10039 ft 238 kts 134°
2026-04-14 21:21 49.67971 10.34734 10044 ft 238 kts 133°
2026-04-14 21:21 49.66881 10.36654 10032 ft 238 kts 133°
2026-04-14 21:22 49.65791 10.38571 10050 ft 238 kts 134°
2026-04-14 21:22 49.64700 10.40487 10035 ft 238 kts 134°
2026-04-14 21:22 49.63601 10.42417 10049 ft 240 kts 134°
2026-04-14 21:22 49.62495 10.44355 10040 ft 241 kts 134°
2026-04-14 21:23 49.61386 10.46298 10042 ft 241 kts 134°
2026-04-14 21:23 49.60279 10.48237 10037 ft 241 kts 134°
2026-04-14 21:23 49.59168 10.50181 10045 ft 241 kts 134°
2026-04-14 21:23 49.58058 10.52123 10039 ft 241 kts 134°
2026-04-14 21:24 49.56947 10.54064 10037 ft 241 kts 134°
2026-04-14 21:24 49.55839 10.56000 10041 ft 241 kts 134°
2026-04-14 21:24 49.54728 10.57937 10041 ft 241 kts 134°
2026-04-14 21:24 49.53618 10.59872 10040 ft 241 kts 134°
2026-04-14 21:25 49.52509 10.61806 10042 ft 241 kts 134°
2026-04-14 21:25 49.51400 10.63736 10041 ft 241 kts 134°
2026-04-14 21:25 49.50291 10.65664 10041 ft 241 kts 134°
2026-04-14 21:25 49.49182 10.67592 10040 ft 241 kts 134°
2026-04-14 21:26 49.48087 10.69495 10043 ft 241 kts 134°
2026-04-14 21:26 49.46976 10.71423 10051 ft 241 kts 134°
2026-04-14 21:26 49.45868 10.73345 10046 ft 241 kts 134°
2026-04-14 21:26 49.44757 10.75272 10048 ft 240 kts 134°
2026-04-14 21:27 49.43651 10.77189 10042 ft 240 kts 134°
2026-04-14 21:27 49.42636 10.79237 9980 ft 244 kts 116°
2026-04-14 21:27 49.42194 10.81764 9636 ft 246 kts 101°
2026-04-14 21:27 49.41960 10.84358 9344 ft 244 kts 98°
2026-04-14 21:28 49.41747 10.86930 9026 ft 243 kts 98°
2026-04-14 21:28 49.41525 10.89490 8704 ft 241 kts 99°
2026-04-14 21:28 49.41293 10.92041 8389 ft 240 kts 99°
2026-04-14 21:28 49.41056 10.94567 8087 ft 238 kts 99°
2026-04-14 21:29 49.40817 10.97072 7784 ft 237 kts 100°
2026-04-14 21:29 49.40576 10.99569 7483 ft 236 kts 99°
2026-04-14 21:29 49.40334 11.02064 7153 ft 236 kts 100°
2026-04-14 21:29 49.40090 11.04548 6880 ft 235 kts 99°
2026-04-14 21:30 49.39951 11.07035 6612 ft 234 kts 87°
2026-04-14 21:30 49.40195 11.09501 6311 ft 234 kts 77°
2026-04-14 21:30 49.40584 11.11926 5983 ft 235 kts 75°
2026-04-14 21:30 49.41016 11.14323 5743 ft 231 kts 73°
2026-04-14 21:31 49.41453 11.16678 5490 ft 228 kts 72°
2026-04-14 21:31 49.41893 11.19016 5207 ft 227 kts 72°
2026-04-14 21:31 49.42327 11.21305 4938 ft 225 kts 71°
2026-04-14 21:31 49.42769 11.23632 4679 ft 223 kts 72°
2026-04-14 21:32 49.43194 11.25874 4371 ft 222 kts 72°
2026-04-14 21:32 49.43627 11.28148 4050 ft 222 kts 72°
2026-04-14 21:32 49.44058 11.30415 3804 ft 219 kts 71°
2026-04-14 21:32 49.44487 11.32647 3543 ft 216 kts 69°
2026-04-14 21:33 49.45278 11.34525 3252 ft 208 kts 31°
2026-04-14 21:33 49.46613 11.35035 3005 ft 197 kts 346°
2026-04-14 21:33 49.47647 11.33960 2886 ft 176 kts 298°
2026-04-14 21:33 49.47850 11.32206 2769 ft 162 kts 272°
2026-04-14 21:34 49.47835 11.30501 2759 ft 158 kts 272°
2026-04-14 21:34 49.47881 11.28821 2762 ft 157 kts 275°
2026-04-14 21:34 49.47987 11.27138 2494 ft 159 kts 278°
2026-04-14 21:34 49.48140 11.25464 2222 ft 156 kts 279°
2026-04-14 21:35 49.48305 11.23815 1932 ft 155 kts 280°
2026-04-14 21:35 49.48454 11.22239 1803 ft 142 kts 278°
2026-04-14 21:35 49.48592 11.20763 1530 ft 138 kts 279°
2026-04-14 21:35 49.48741 11.19266 1370 ft 151 kts 279°
2026-04-14 21:36 49.48913 11.17585 1926 ft 161 kts 280°
2026-04-14 21:36 49.49073 11.15872 2564 ft 165 kts 279°
2026-04-14 21:36 49.49235 11.14010 2533 ft 185 kts 280°
2026-04-14 21:36 49.49495 11.12088 1919 ft 183 kts 277°
2026-04-14 21:37 49.49623 11.10136 1278 ft 187 kts 278°
2026-04-14 21:37 49.49821 11.08217 1036 ft 172 kts 278°
2026-04-14 21:37 49.49956 11.06864 1025 ft 79 kts 279°
2026-04-14 21:37 49.50016 11.06302 1028 ft 39 kts 277°
2026-04-14 21:38 49.50037 11.05984 1031 ft 20 kts 245°
2026-04-14 21:38 49.49913 11.05963 1025 ft 19 kts 159°
2026-04-14 21:38 49.49846 11.06099 1023 ft 17 kts 98°
2026-04-14 21:38 49.49828 11.06284 1021 ft 18 kts 98°
2026-04-14 21:39 49.49809 11.06477 1023 ft 18 kts 99°
2026-04-14 21:39 49.49791 11.06662 1023 ft 18 kts 97°
2026-04-14 21:39 49.49774 11.06852 1023 ft 18 kts 98°
2026-04-14 21:39 49.49756 11.07040 1021 ft 17 kts 98°
2026-04-14 21:40 49.49737 11.07212 1023 ft 17 kts 98°
2026-04-14 21:40 49.49707 11.07501 1027 ft 35 kts 98°
2026-04-14 21:40 49.49683 11.07736 1027 ft 11 kts 108°
2026-04-14 21:40 49.49641 11.07766 1029 ft 12 kts 179°
2026-04-14 21:41 49.49594 11.07674 1029 ft 19 kts 279°
2026-04-14 21:41 49.49583 11.07598 1026 ft 4 kts 205°
2026-04-14 21:41 49.49563 11.07591 1029 ft 0 kts 191°
2026-04-14 21:41 49.49554 11.07589 1029 ft 0 kts 189°
2026-04-14 21:42 49.49542 11.07586 1027 ft 1 kts 188°
2026-04-14 21:42 49.49537 11.07585 1029 ft 2 kts 188°
2026-04-14 21:43 49.49535 11.07584 1029 ft 0 kts 188°